Location: Unspecified
(43.4354°N, 0.0000°E)
Time: 02:59:49
(UTC+00:00)

A-11 Canister half - Pass Details

Date: 24 June 2019
Orbit: 1514 x 1685 km, 47.2° (Epoch: 17 July)

Event Time Altitude Azimuth Distance (km) Brightness Sun altitude
Rises 08:36:29 0° 205° (SSW) 4,920 11.5 43.5°
Reaches altitude 10° 08:39:57 10° 198° (SSW) 3,925 11.2 44.1°
Maximum altitude 08:48:53 38° 135° (SE) 2,344 11.4 45.7°
Drops below altitude 10° 08:57:35 10° 72° (ENE) 3,838 11.9 47.3°
Sets 09:00:56 0° 65° (ENE) 4,802 12.1 47.8°
